TimeCST,TemperatureF,Dew PointF,Humidity,Sea Level PressureIn,VisibilityMPH,Wind Direction,Wind SpeedMPH,Gust SpeedMPH,PrecipitationIn,Events,Conditions,WindDirDegrees,DateUTC
12:53 AM,34.0,27.0,75,29.90,10.0,North,9.2,16.1,N/A,,Overcast,10,2013-02-28 06:53:00
1:12 AM,33.8,26.6,75,29.87,10.0,North,9.2,-,N/A,,Overcast,350,2013-02-28 07:12:00
1:25 AM,33.8,26.6,75,29.87,10.0,North,8.1,-,N/A,,Overcast,360,2013-02-28 07:25:00
1:53 AM,34.0,27.0,75,29.90,10.0,North,8.1,-,N/A,,Overcast,10,2013-02-28 07:53:00
2:53 AM,34.0,27.0,75,29.91,10.0,North,8.1,-,N/A,,Overcast,10,2013-02-28 08:53:00
3:53 AM,33.1,27.0,78,29.93,10.0,North,6.9,-,N/A,,Overcast,10,2013-02-28 09:53:00
4:53 AM,33.1,26.1,75,29.96,10.0,North,10.4,-,N/A,,Overcast,350,2013-02-28 10:53:00
5:30 AM,33.8,26.6,75,29.94,10.0,North,8.1,-,N/A,,Overcast,360,2013-02-28 11:30:00
6:04 AM,33.8,26.6,75,29.96,10.0,North,4.6,-,N/A,,Overcast,10,2013-02-28 12:04:00
6:53 AM,33.1,25.0,72,30.00,10.0,North,4.6,-,N/A,,Overcast,360,2013-02-28 12:53:00
7:53 AM,33.1,26.1,75,30.02,10.0,North,8.1,-,N/A,,Overcast,350,2013-02-28 13:53:00
8:12 AM,33.8,26.6,75,30.00,10.0,North,10.4,17.3,N/A,,Overcast,360,2013-02-28 14:12:00
8:22 AM,33.8,26.6,75,30.00,10.0,North,6.9,-,N/A,,Overcast,10,2013-02-28 14:22:00
8:53 AM,34.0,26.1,73,30.03,10.0,North,5.8,-,N/A,,Overcast,10,2013-02-28 14:53:00
9:53 AM,34.0,26.1,73,30.05,7.0,North,8.1,17.3,0.00,Snow,Light Snow,10,2013-02-28 15:53:00
10:53 AM,34.0,25.0,70,30.06,10.0,North,9.2,-,0.00,,Overcast,10,2013-02-28 16:53:00
11:53 AM,35.1,25.0,67,30.07,10.0,North,6.9,-,N/A,,Overcast,10,2013-02-28 17:53:00
12:53 PM,35.1,24.1,64,30.06,10.0,North,13.8,17.3,N/A,,Overcast,350,2013-02-28 18:53:00
1:53 PM,35.1,24.1,64,30.06,10.0,North,11.5,16.1,N/A,,Overcast,360,2013-02-28 19:53:00
3:53 PM,34.0,23.0,64,30.09,10.0,North,5.8,-,N/A,,Overcast,10,2013-02-28 21:53:00
4:53 PM,33.1,23.0,66,30.10,10.0,North,9.2,-,N/A,,Overcast,10,2013-02-28 22:53:00
5:43 PM,33.8,23.0,65,30.09,10.0,NNW,5.8,-,N/A,,Overcast,340,2013-02-28 23:43:00
5:53 PM,33.1,23.0,66,30.12,10.0,North,5.8,-,N/A,,Overcast,360,2013-02-28 23:53:00
6:53 PM,32.0,23.0,69,30.13,10.0,NNW,3.5,-,N/A,,Overcast,340,2013-03-01 00:53:00
7:53 PM,32.0,21.9,66,30.14,10.0,Calm,Calm,-,N/A,,Overcast,0,2013-03-01 01:53:00
8:53 PM,32.0,21.9,66,30.14,10.0,NNE,5.8,-,N/A,,Overcast,20,2013-03-01 02:53:00
9:53 PM,32.0,18.0,56,30.15,10.0,NNE,4.6,-,N/A,,Overcast,30,2013-03-01 03:53:00
10:53 PM,30.9,19.9,64,30.16,10.0,Variable,4.6,-,N/A,,Overcast,0,2013-03-01 04:53:00
11:53 PM,30.0,19.9,66,30.16,10.0,NNE,5.8,-,N/A,,Overcast,30,2013-03-01 05:53:00